Concord, NC

4:56 AM EST on December 07, 2016 (GMT -0500)
Concord Regional

Weather History for KJQF - March, 2013

Change the Weather History Date:

Saturday, March 30, 2013

  Actual Average (KCLT) Record (KCLT)
Temperature  
Mean Temperature 54 °F 55 °F  
Max Temperature 64 °F 67 °F 86 °F (1998)
Min Temperature 44 °F 43 °F 24 °F (1964)
Degree Days  
Heating Degree Days 11 10  
Month to date heating degree days 424  
Since 1 July heating degree days 3123  
Cooling Degree Days 0 0  
Month to date cooling degree days 0  
Year to date cooling degree days 0  
Growing Degree Days 4 (Base 50)    
Moisture  
Dew Point 40 °F    
Average Humidity 66    
Maximum Humidity 93    
Minimum Humidity 37    
Precipitation  
Precipitation 0.05 in 0.13 in 2.36 in (1924)
Month to date precipitation 3.89  
Year to date precipitation 10.62  
Snow  
Snow 0.00 in 0.00 in 3.50 in (1915)
Month to date snowfall 0.6  
Since 1 July snowfall 4.3  
Snow Depth -    
Sea Level Pressure  
Sea Level Pressure 30.20 in    
Wind  
Wind Speed 2 mph (SW)    
Max Wind Speed 8 mph    
Max Gust Speed -    
Visibility 10 miles    
Events      
T = Trace of Precipitation, MM = Missing Value Source: NWS Daily Summary

Daily Weather History Graph

Daily Weather History Graph

Search for Another Location

Airport or City:

Trip Planner

Search our weather history database for the weather conditions in past years. The results will help you decide how hot, cold, wet, or windy it might be!

Date:

Astronomy

Mar. 30, 2013 Rise Set
Actual Time 7:11 AM EDT 7:42 PM EDT
Civil Twilight 6:46 AM EDT 8:08 PM EDT
Nautical Twilight 6:16 AM EDT 8:38 PM EDT
Astronomical Twilight 5:45 AM EDT 9:09 PM EDT
Moon 11:39 PM EDT (3/30) 9:13 AM EDT (3/30)
Length of Visible Light 13h 22m
Length of Day
12h 30m
Waning Gibbous, 86% of the Moon is Illuminated
Mar 30
Waning Gibbous
Apr 3
Last Quarter
Apr 10
New
Apr 18
First Quarter
Apr 25
Full

Hourly Weather History & Observations

Time (EDT) Temp. Windchill Dew Point Humidity Pressure Visibility Wind Dir Wind Speed Gust Speed Precip Events Conditions
12:15 AM 51.8 °F - 32.0 °F 47% 30.25 in 10.0 mi West 3.5 mph - N/A   Overcast
12:35 AM 51.8 °F - 32.0 °F 47% 30.24 in 10.0 mi Calm Calm - N/A   Overcast
12:55 AM 51.8 °F - 33.8 °F 50% 30.24 in 10.0 mi West 3.5 mph - N/A   Overcast
1:15 AM 51.8 °F - 33.8 °F 50% 30.24 in 10.0 mi Calm Calm - N/A   Overcast
1:35 AM 51.8 °F - 33.8 °F 50% 30.24 in 10.0 mi Calm Calm - N/A   Overcast
1:55 AM 51.8 °F - 33.8 °F 50% 30.24 in 10.0 mi West 3.5 mph - N/A   Overcast
2:15 AM 50.0 °F - 33.8 °F 54% 30.23 in 10.0 mi Calm Calm - N/A   Overcast
2:35 AM 50.0 °F - 35.6 °F 58% 30.23 in 10.0 mi WNW 3.5 mph - N/A   Overcast
2:55 AM 50.0 °F - 37.4 °F 62% 30.23 in 10.0 mi Calm Calm - N/A   Overcast
3:15 AM 48.2 °F - 37.4 °F 66% 30.23 in 10.0 mi Calm Calm - N/A   Overcast
3:35 AM 46.4 °F - 41.0 °F 81% 30.23 in 10.0 mi Calm Calm - N/A   Overcast
3:55 AM 44.6 °F - 42.8 °F 93% 30.23 in 10.0 mi Calm Calm - N/A   Overcast
4:15 AM 44.6 °F - 42.8 °F 93% 30.22 in 10.0 mi Calm Calm - N/A   Overcast
4:35 AM 46.4 °F 45.2 °F 42.8 °F 87% 30.23 in 10.0 mi WSW 3.5 mph - N/A   Overcast
4:55 AM 46.4 °F - 42.8 °F 87% 30.23 in 10.0 mi Calm Calm - 0.01 in   Overcast
5:15 AM 44.6 °F 43.1 °F 42.8 °F 93% 30.24 in 10.0 mi SW 3.5 mph - N/A   Overcast
5:35 AM 44.6 °F 43.1 °F 42.8 °F 93% 30.24 in 10.0 mi SW 3.5 mph - 0.01 in   Overcast
5:55 AM 44.6 °F - 42.8 °F 93% 30.25 in 10.0 mi Calm Calm - 0.02 in   Overcast
6:15 AM 44.6 °F - 42.8 °F 93% 30.25 in 7.0 mi Calm Calm - 0.01 in   Overcast
6:35 AM 44.6 °F - 42.8 °F 93% 30.25 in 7.0 mi Calm Calm - 0.02 in   Overcast
6:55 AM 44.6 °F 43.1 °F 42.8 °F 93% 30.24 in 7.0 mi North 3.5 mph - 0.02 in   Overcast
7:15 AM 44.6 °F 43.1 °F 42.8 °F 93% 30.24 in 7.0 mi North 3.5 mph - N/A   Overcast
7:35 AM 44.6 °F - 42.8 °F 93% 30.24 in 7.0 mi Calm Calm - N/A   Overcast
7:55 AM 46.4 °F - 44.6 °F 93% 30.24 in 7.0 mi Calm Calm - N/A   Overcast
8:55 AM 48.2 °F - 44.6 °F 87% 30.26 in 7.0 mi Calm Calm - N/A   Mostly Cloudy
9:55 AM 51.8 °F - 39.2 °F 62% 30.25 in 10.0 mi Calm Calm - N/A   Scattered Clouds
10:55 AM 53.6 °F - 37.4 °F 54% 30.24 in 10.0 mi Calm Calm - N/A   Mostly Cloudy
11:55 AM 57.2 °F - 37.4 °F 48% 30.23 in 10.0 mi Calm Calm - N/A   Clear
12:55 PM 60.8 °F - 37.4 °F 42% 30.22 in 10.0 mi Calm Calm - N/A   Clear
1:55 PM 62.6 °F - 37.4 °F 39% 30.18 in 10.0 mi SW 8.1 mph - N/A   Clear
2:55 PM 62.6 °F - 37.4 °F 39% 30.17 in 10.0 mi Calm Calm - N/A   Mostly Cloudy
3:55 PM 64.4 °F - 37.4 °F 37% 30.14 in 10.0 mi Calm Calm - N/A   Mostly Cloudy
4:55 PM 64.4 °F - 37.4 °F 37% 30.13 in 10.0 mi WSW 5.8 mph - N/A   Scattered Clouds
5:55 PM 64.4 °F - 37.4 °F 37% 30.12 in 10.0 mi WSW 6.9 mph - N/A   Scattered Clouds
6:55 PM 62.6 °F - 37.4 °F 39% 30.13 in 10.0 mi West 3.5 mph - N/A   Scattered Clouds
7:55 PM 55.4 °F - 42.8 °F 63% 30.12 in 10.0 mi Calm Calm - N/A   Clear
8:55 PM 55.4 °F - 41.0 °F 58% 30.12 in 10.0 mi Calm Calm - N/A   Clear
9:15 PM 53.6 °F - 41.0 °F 62% 30.12 in 10.0 mi Calm Calm - N/A   Clear
9:35 PM 55.4 °F - 41.0 °F 58% 30.12 in 10.0 mi SE 3.5 mph - N/A   Clear
9:55 PM 55.4 °F - 41.0 °F 58% 30.12 in 10.0 mi SE 3.5 mph - N/A   Clear
10:15 PM 55.4 °F - 42.8 °F 63% 30.12 in 10.0 mi SE 3.5 mph - N/A   Clear
10:35 PM 55.4 °F - 42.8 °F 63% 30.12 in 10.0 mi SE 3.5 mph - N/A   Clear
10:55 PM 53.6 °F - 42.8 °F 67% 30.12 in 10.0 mi SE 3.5 mph - N/A   Clear
11:15 PM 53.6 °F - 42.8 °F 67% 30.12 in 10.0 mi Calm Calm - N/A   Clear
11:35 PM 53.6 °F - 42.8 °F 67% 30.11 in 10.0 mi Calm Calm - N/A   Clear
11:55 PM 53.6 °F - 42.8 °F 67% 30.11 in 10.0 mi SE 4.6 mph - N/A   Clear